| time (UTC) | temp F | wind direction | speed MPH | gust MPH | rain 1hr in | rain 24hr in | rain mn in | humidity % | barometer mb |
| 20260508104545 | 38 | 303 | 3.0 | 4.0 | 0.00 | 0.00 | 0.00 | 70 | 1009.7 |
| 20260508103043 | 37 | 286 | 1.0 | 5.0 | 0.00 | 0.00 | 0.00 | 70 | 1009.7 |
| 20260508101541 | 38 | 294 | 1.0 | 3.0 | 0.00 | 0.00 | 0.00 | 69 | 1009.7 |
| 20260508100038 | 38 | 313 | 2.0 | 4.0 | 0.00 | 0.00 | 0.00 | 67 | 1009.6 |
| 20260508094536 | 38 | 259 | 2.0 | 3.0 | 0.00 | 0.00 | 0.00 | 66 | 1009.7 |
| 20260508093035 | 39 | 259 | 1.0 | 3.0 | 0.00 | 0.00 | 0.00 | 67 | 1009.6 |
| 20260508091538 | 40 | 253 | 1.0 | 2.0 | 0.00 | 0.00 | 0.00 | 65 | 1009.5 |
| 20260508090030 | 41 | 253 | 1.0 | 4.0 | 0.00 | 0.00 | 0.00 | 65 | 1009.6 |
| 20260508084528 | 40 | 234 | 2.0 | 6.0 | 0.00 | 0.00 | 0.00 | 67 | 1009.6 |
| 20260508083025 | 41 | 296 | 2.0 | 5.0 | 0.00 | 0.00 | 0.00 | 66 | 1009.4 |
| 20260508081522 | 43 | 263 | 5.0 | 10.0 | 0.00 | 0.00 | 0.00 | 65 | 1009.4 |
| 20260508080018 | 45 | 301 | 2.0 | 5.0 | 0.00 | 0.00 | 0.00 | 62 | 1009.2 |
| 20260508074518 | 44 | 254 | 1.0 | 3.0 | 0.00 | 0.00 | 0.00 | 64 | 1009.1 |
| 20260508073018 | 45 | 254 | 1.0 | 3.0 | 0.00 | 0.00 | 0.00 | 64 | 1009.1 |
| 20260508071513 | 47 | 311 | 1.0 | 4.0 | 0.00 | 0.00 | 0.00 | 60 | 1009.0 |
| 20260508070010 | 47 | 302 | 1.0 | 4.0 | 0.00 | 0.00 | 0.00 | 61 | 1008.9 |
| 20260508064508 | 47 | 273 | 1.0 | 3.0 | 0.00 | 0.00 | 0.00 | 63 | 1008.9 |
| 20260508063006 | 48 | 265 | 2.0 | 4.0 | 0.00 | 0.00 | 0.00 | 61 | 1008.9 |
| 20260508061505 | 48 | 304 | 2.0 | 3.0 | 0.00 | 0.00 | 0.00 | 62 | 1008.8 |
| 20260508060059 | 50 | 291 | 2.0 | 4.0 | 0.00 | 0.00 | 0.00 | 59 | 1008.8 |
| 20260508054559 | 52 | 298 | 2.0 | 7.0 | 0.00 | 0.00 | 0.00 | 57 | 1008.8 |
| 20260508053106 | 53 | 291 | 2.0 | 6.0 | 0.00 | 0.00 | 0.00 | 55 | 1008.8 |
| 20260508051606 | 54 | 298 | 1.0 | 4.0 | 0.00 | 0.00 | 0.00 | 55 | 1008.7 |
| 20260508050058 | 55 | 300 | 2.0 | 4.0 | 0.00 | 0.00 | 0.00 | 54 | 1008.8 |
| 20260508044607 | 57 | 284 | 3.0 | 6.0 | 0.00 | 0.00 | 0.00 | 51 | 1008.9 |
| 20260508043056 | 58 | 283 | 3.0 | 8.0 | 0.00 | 0.00 | 0.00 | 48 | 1008.7 |
| 20260508041556 | 59 | 275 | 5.0 | 11.0 | 0.00 | 0.00 | 0.00 | 47 | 1008.6 |
| 20260508040056 | 57 | 288 | 5.0 | 10.0 | 0.00 | 0.00 | 0.00 | 50 | 1008.6 |
| 20260508034555 | 56 | 295 | 3.0 | 5.0 | 0.00 | 0.00 | 0.00 | 51 | 1008.6 |
| 20260508033100 | 57 | 288 | 2.0 | 4.0 | 0.00 | 0.00 | 0.00 | 50 | 1008.5 |
| 20260508031556 | 59 | 285 | 2.0 | 6.0 | 0.00 | 0.00 | 0.00 | 46 | 1008.4 |
| 20260508030054 | 61 | 263 | 4.0 | 8.0 | 0.00 | 0.00 | 0.00 | 44 | 1008.1 |
| 20260508024603 | 61 | 309 | 4.0 | 7.0 | 0.00 | 0.00 | 0.00 | 43 | 1008.1 |
| 20260508023055 | 60 | 286 | 2.0 | 4.0 | 0.00 | 0.00 | 0.00 | 42 | 1007.8 |
| 20260508021555 | 62 | 307 | 1.0 | 6.0 | 0.00 | 0.00 | 0.00 | 36 | 1007.6 |
| 20260508020053 | 63 | 304 | 2.0 | 4.0 | 0.00 | 0.00 | 0.00 | 34 | 1007.3 |
| 20260508014552 | 65 | 330 | 3.0 | 9.0 | 0.00 | 0.00 | 0.00 | 31 | 1007.2 |
| 20260508013051 | 66 | 350 | 5.0 | 12.0 | 0.00 | 0.00 | 0.00 | 30 | 1007.1 |
| 20260508011605 | 65 | 346 | 5.0 | 9.0 | 0.00 | 0.00 | 0.00 | 31 | 1006.9 |
| 20260508010049 | 67 | 315 | 4.0 | 9.0 | 0.00 | 0.00 | 0.00 | 30 | 1007.0 |
| 20260508004556 | 69 | 355 | 8.0 | 13.0 | 0.00 | 0.00 | 0.00 | 27 | 1006.9 |
| 20260508003049 | 70 | 317 | 6.0 | 11.0 | 0.00 | 0.00 | 0.00 | 27 | 1006.9 |
| 20260508001551 | 69 | 284 | 7.0 | 16.0 | 0.00 | 0.00 | 0.00 | 28 | 1006.8 |
| 20260508000047 | 69 | 332 | 9.0 | 16.0 | 0.00 | 0.00 | 0.00 | 27 | 1007.0 |
| 20260507234553 | 69 | 323 | 9.0 | 14.0 | 0.00 | 0.00 | 0.00 | 27 | 1006.9 |
| 20260507233047 | 69 | 300 | 7.0 | 14.0 | 0.00 | 0.00 | 0.00 | 28 | 1006.9 |
| 20260507231550 | 70 | 319 | 6.0 | 13.0 | 0.00 | 0.00 | 0.00 | 29 | 1006.9 |
| 20260507230044 | 69 | 313 | 7.0 | 14.0 | 0.00 | 0.00 | 0.00 | 30 | 1006.9 |
| 20260507224544 | 69 | 307 | 7.0 | 19.0 | 0.00 | 0.00 | 0.00 | 29 | 1006.9 |
| 20260507223041 | 69 | 314 | 8.0 | 14.0 | 0.00 | 0.00 | 0.00 | 29 | 1007.0 |
| 20260507221539 | 69 | 323 | 7.0 | 15.0 | 0.00 | 0.00 | 0.00 | 30 | 1007.1 |
| 20260507220037 | 68 | 316 | 7.0 | 25.0 | 0.00 | 0.00 | 0.00 | 31 | 1007.3 |
| 20260507214536 | 68 | 319 | 6.0 | 18.0 | 0.00 | 0.00 | 0.00 | 31 | 1007.3 |
| 20260507213043 | 69 | 346 | 9.0 | 16.0 | 0.00 | 0.00 | 0.00 | 31 | 1007.5 |
| 20260507211536 | 68 | 333 | 9.0 | 17.0 | 0.00 | 0.00 | 0.00 | 30 | 1007.7 |
| 20260507210033 | 67 | 322 | 7.0 | 16.0 | 0.00 | 0.00 | 0.00 | 30 | 1007.8 |
| 20260507204532 | 68 | 325 | 8.0 | 14.0 | 0.00 | 0.00 | 0.00 | 30 | 1007.8 |
| 20260507203032 | 68 | 321 | 7.0 | 18.0 | 0.00 | 0.00 | 0.00 | 31 | 1007.7 |
| 20260507201530 | 67 | 323 | 7.0 | 16.0 | 0.00 | 0.00 | 0.00 | 32 | 1007.7 |
| 20260507200029 | 67 | 317 | 7.0 | 14.0 | 0.00 | 0.00 | 0.00 | 31 | 1007.5 |
| 20260507194531 | 67 | 317 | 6.0 | 13.0 | 0.00 | 0.00 | 0.00 | 32 | 1007.6 |
| 20260507193029 | 66 | 347 | 5.0 | 13.0 | 0.00 | 0.00 | 0.00 | 33 | 1007.6 |
| 20260507191527 | 67 | 328 | 9.0 | 16.0 | 0.00 | 0.00 | 0.00 | 31 | 1007.6 |
| 20260507190026 | 69 | 355 | 7.0 | 14.0 | 0.00 | 0.00 | 0.00 | 32 | 1007.7 |
| 20260507184523 | 67 | 323 | 8.0 | 14.0 | 0.00 | 0.00 | 0.00 | 33 | 1007.9 |
| 20260507183022 | 68 | 288 | 9.0 | 15.0 | 0.00 | 0.00 | 0.00 | 36 | 1008.1 |
| 20260507181521 | 67 | 336 | 6.0 | 17.0 | 0.00 | 0.00 | 0.00 | 35 | 1008.2 |
| 20260507180019 | 67 | 338 | 9.0 | 15.0 | 0.00 | 0.00 | 0.00 | 36 | 1008.3 |
| 20260507174517 | 67 | 319 | 6.0 | 14.0 | 0.00 | 0.00 | 0.00 | 39 | 1008.5 |
| 20260507173026 | 65 | 329 | 6.0 | 24.0 | 0.00 | 0.00 | 0.00 | 40 | 1008.7 |
| 20260507171515 | 65 | 360 | 9.0 | 17.0 | 0.00 | 0.00 | 0.00 | 39 | 1008.8 |
| 20260507170013 | 65 | 304 | 7.0 | 15.0 | 0.00 | 0.00 | 0.00 | 40 | 1008.8 |
| 20260507164509 | 64 | 351 | 7.0 | 16.0 | 0.00 | 0.00 | 0.00 | 41 | 1008.7 |
| 20260507163007 | 64 | 321 | 8.0 | 15.0 | 0.00 | 0.00 | 0.00 | 41 | 1008.9 |
| 20260507161517 | 63 | 294 | 5.0 | 10.0 | 0.00 | 0.00 | 0.00 | 42 | 1008.9 |
| 20260507160006 | 64 | 335 | 7.0 | 12.0 | 0.00 | 0.00 | 0.00 | 41 | 1009.1 |
| 20260507154502 | 61 | 339 | 4.0 | 14.0 | 0.00 | 0.00 | 0.00 | 44 | 1009.2 |
| 20260507153057 | 58 | 282 | 4.0 | 8.0 | 0.00 | 0.00 | 0.00 | 46 | 1009.3 |
| 20260507151553 | 56 | 306 | 3.0 | 7.0 | 0.00 | 0.00 | 0.00 | 45 | 1009.6 |
| 20260507150050 | 53 | 288 | 3.0 | 6.0 | 0.00 | 0.00 | 0.00 | 44 | 1009.6 |
| 20260507144613 | 50 | 209 | 3.0 | 7.0 | 0.00 | 0.00 | 0.00 | 43 | 1009.2 |
| 20260507143052 | 49 | 284 | 1.0 | 3.0 | 0.00 | 0.00 | 0.00 | 42 | 1009.7 |
| 20260507141610 | 48 | 309 | 0.0 | 1.0 | 0.00 | 0.00 | 0.00 | 40 | 1009.7 |
| 20260507140049 | 47 | 16 | 0.0 | 4.0 | 0.00 | 0.00 | 0.00 | 40 | 1009.8 |
| 20260507134549 | 47 | 12 | 3.0 | 6.0 | 0.00 | 0.00 | 0.00 | 40 | 1009.8 |
| 20260507133046 | 46 | 355 | 2.0 | 4.0 | 0.00 | 0.00 | 0.00 | 49 | 1009.7 |
| 20260507131546 | 45 | 198 | 0.0 | 0.0 | 0.00 | 0.00 | 0.00 | 50 | 1009.7 |
| 20260507130045 | 45 | 198 | 0.0 | 1.0 | 0.00 | 0.00 | 0.00 | 51 | 1009.5 |
| 20260507124543 | 44 | 198 | 1.0 | 3.0 | 0.00 | 0.00 | 0.00 | 51 | 1009.6 |
| 20260507123046 | 44 | 92 | 0.0 | 9.0 | 0.00 | 0.00 | 0.00 | 50 | 1009.1 |
| 20260507121541 | 44 | 50 | 1.0 | 3.0 | 0.00 | 0.00 | 0.00 | 52 | 1008.8 |
| 20260507120041 | 43 | 50 | 2.0 | 3.0 | 0.00 | 0.00 | 0.00 | 53 | 1009.1 |
| 20260507114540 | 42 | 288 | 5.0 | 11.0 | 0.00 | 0.00 | 0.00 | 58 | 1009.0 |
| 20260507113037 | 42 | 294 | 4.0 | 8.0 | 0.00 | 0.00 | 0.00 | 55 | 1008.4 |
| 20260507111543 | 42 | 297 | 3.0 | 7.0 | 0.00 | 0.00 | 0.00 | 56 | 1008.3 |
| 20260507110037 | 41 | 293 | 2.0 | 6.0 | 0.00 | 0.00 | 0.00 | 59 | 1008.3 |